Location: Bucharest
(44.4268°N, 26.1025°E)
Time: 06:19:53
(UTC+03:00)

Oscar 19 - Pass Details

Date: 02 July 2022
Orbit: 773 x 790 km, 98.8° (Epoch: 14 August)

Event Time Altitude Azimuth Distance (km) Brightness Sun altitude
Rises 04:31:44 0° 18° (NNE) 3,261 15.1 -9.5°
Reaches altitude 10° 04:34:06 10° 22° (NNE) 2,329 14.4 -9.2°
Maximum altitude 04:39:08 56° 101° (E) 919 11.3 -8.6°
Drops below altitude 10° 04:44:09 10° 179° (S) 2,313 12.7 -8.0°
Sets 04:46:29 0° 184° (S) 3,237 13.4 -7.6°
Enters shadow 04:46:34 - 184° (S) 3,269 13.4 -7.6°
